EW6576 Weather Reports


Display with metric or nautical units.
time (UTC)temp
F
wind
direction
speed
MPH
gust
MPH
rain 1hr
in
rain 24hr
in
rain mn
in
humidity
%
barometer
mb
20260505010913 63 196 3.0 3.0 0.00 0.02 0.02 70 1014.8
20260505010409 63 112 3.0 6.0 0.00 0.02 0.02 71 1014.8
20260505005904 62 220 3.0 5.0 0.00 0.02 0.02 71 1014.7
20260505005402 63 162 5.0 7.0 0.00 0.02 0.02 68 1015.0
20260505004859 63 104 5.0 6.0 0.00 0.02 0.02 67 1014.7
20260505004355 64 178 3.0 5.0 0.00 0.02 0.02 69 1015.1
20260505003853 64 134 5.0 6.0 0.00 0.02 0.02 67 1015.1
20260505003350 65 107 2.0 3.0 0.00 0.02 0.02 67 1015.1
20260505002845 64 69 5.0 8.0 0.00 0.02 0.02 65 1014.8
20260505002343 64 117 5.0 8.0 0.00 0.02 0.02 63 1014.7
20260505001841 64 146 3.0 5.0 0.00 0.02 0.02 64 1014.6
20260505001338 63 228 3.0 3.0 0.00 0.02 0.02 66 1014.9
20260505000835 64 208 8.0 13.0 0.00 0.02 0.02 64 1014.8
20260505000333 64 180 9.0 13.0 0.00 0.02 0.02 64 1014.6
20260504235829 64 172 7.0 8.0 0.00 0.02 0.02 63 1015.0
20260504235326 65 58 4.0 6.0 0.00 0.02 0.02 64 1014.8
20260504234823 64 173 3.0 5.0 0.00 0.02 0.02 64 1014.8
20260504234321 65 140 3.0 5.0 0.00 0.02 0.02 65 1014.8
20260504233817 64 49 6.0 7.0 0.00 0.02 0.02 62 1014.6
20260504233313 64 144 3.0 5.0 0.00 0.02 0.02 60 1014.8
20260504232809 64 134 2.0 5.0 0.00 0.02 0.02 58 1014.9
20260504232307 64 170 4.0 6.0 0.00 0.02 0.02 60 1014.9
20260504231804 64 82 8.0 10.0 0.00 0.02 0.02 60 1014.8
20260504231300 65 212 6.0 8.0 0.00 0.02 0.02 58 1015.0
20260504230756 66 113 4.0 6.0 0.00 0.02 0.02 56 1014.9
20260504230254 66 190 2.0 2.0 0.00 0.02 0.02 56 1015.0
20260504225753 65 68 5.0 9.0 0.00 0.02 0.02 59 1014.7
20260504225249 66 175 7.0 8.0 0.00 0.02 0.02 58 1014.7
20260504224746 66 142 5.0 7.0 0.00 0.02 0.02 58 1014.9
20260504224243 66 197 4.0 7.0 0.00 0.02 0.02 58 1014.8
20260504223739 65 186 5.0 6.0 0.00 0.02 0.02 59 1014.8
20260504223235 66 222 2.0 3.0 0.00 0.02 0.02 59 1014.7
20260504222732 66 192 2.0 2.0 0.00 0.02 0.02 57 1015.1
20260504222229 65 162 2.0 3.0 0.00 0.02 0.02 57 1015.0
20260504221727 66 172 4.0 5.0 0.00 0.02 0.02 57 1015.1
20260504221224 66 208 3.0 5.0 0.00 0.02 0.02 59 1015.0
20260504220720 68 178 5.0 7.0 0.00 0.02 0.02 59 1015.5
20260504220218 68 206 8.0 10.0 0.00 0.02 0.02 59 1015.3
20260504215714 67 121 10.0 15.0 0.00 0.02 0.02 57 1015.3
20260504215211 66 213 4.0 7.0 0.00 0.02 0.02 60 1015.5
20260504214707 66 198 7.0 11.0 0.00 0.02 0.02 59 1015.5
20260504214204 67 172 5.0 7.0 0.00 0.02 0.02 59 1015.3
20260504213700 67 175 6.0 7.0 0.00 0.02 0.02 58 1015.6
20260504213157 68 182 3.0 5.0 0.00 0.02 0.02 55 1015.4
20260504212654 67 231 5.0 7.0 0.00 0.02 0.02 56 1015.6
20260504212150 66 115 7.0 8.0 0.00 0.02 0.02 58 1015.3
20260504211648 67 231 4.0 5.0 0.00 0.02 0.02 57 1015.5
20260504211144 67 118 6.0 8.0 0.00 0.02 0.02 56 1015.7
20260504210642 66 182 4.0 5.0 0.00 0.02 0.02 58 1015.6
20260504210138 67 147 3.0 5.0 0.00 0.02 0.02 58 1015.4
20260504205636 68 107 5.0 6.0 0.00 0.02 0.02 57 1015.8
20260504205133 66 308 5.0 6.0 0.00 0.02 0.02 58 1015.4
20260504204631 67 149 5.0 9.0 0.00 0.02 0.02 59 1015.6
20260504204130 66 107 9.0 13.0 0.00 0.02 0.02 59 1015.6
20260504203628 67 139 4.0 6.0 0.00 0.02 0.02 59 1015.6
20260504203125 66 188 2.0 2.0 0.00 0.02 0.02 59 1015.8
20260504202620 66 94 1.0 2.0 0.00 0.02 0.02 57 1015.6
20260504202117 67 151 5.0 7.0 0.00 0.02 0.02 59 1015.7
20260504201614 67 192 3.0 6.0 0.00 0.02 0.02 57 1015.9
20260504201112 66 189 6.0 14.0 0.00 0.02 0.02 59 1015.8
20260504200608 66 183 7.0 9.0 0.00 0.02 0.02 60 1015.8
20260504200105 67 105 4.0 6.0 0.00 0.02 0.02 61 1015.8
20260504195601 66 167 3.0 6.0 0.00 0.02 0.02 60 1015.8
20260504195057 65 139 5.0 7.0 0.00 0.02 0.02 60 1015.7
20260504194554 65 133 2.0 3.0 0.00 0.02 0.02 62 1016.0
20260504194049 66 152 5.0 6.0 0.00 0.02 0.02 58 1016.1
20260504193546 66 95 3.0 5.0 0.00 0.02 0.02 61 1015.9
20260504193045 65 208 3.0 5.0 0.00 0.02 0.02 59 1016.0
20260504192543 66 176 3.0 5.0 0.00 0.02 0.02 59 1016.0
20260504192041 65 110 4.0 6.0 0.00 0.02 0.02 59 1016.1
20260504191538 65 48 1.0 1.0 0.00 0.02 0.02 61 1016.1
20260504191034 66 219 4.0 6.0 0.00 0.02 0.02 58 1016.1
20260504190531 67 144 2.0 3.0 0.00 0.02 0.02 61 1016.1
20260504190027 66 164 3.0 3.0 0.00 0.02 0.02 60 1016.0
20260504185524 66 171 2.0 6.0 0.00 0.02 0.02 61 1016.1
20260504185020 65 181 2.0 2.0 0.00 0.02 0.02 61 1016.2
20260504184516 65 211 6.0 7.0 0.00 0.02 0.02 62 1016.1
20260504184012 64 195 1.0 2.0 0.00 0.02 0.02 62 1016.0
20260504183509 64 196 3.0 5.0 0.00 0.02 0.02 64 1016.3
20260504183007 64 183 5.0 7.0 0.00 0.02 0.02 64 1016.5
20260504182503 65 77 2.0 3.0 0.00 0.02 0.02 62 1016.6
20260504182001 64 77 6.0 7.0 0.00 0.02 0.02 63 1016.1
20260504181457 65 102 3.0 3.0 0.00 0.02 0.02 63 1016.1
20260504180956 63 143 4.0 5.0 0.00 0.02 0.02 67 1016.5
20260504180455 65 278 3.0 6.0 0.00 0.02 0.02 66 1016.3
20260504175953 63 119 5.0 7.0 0.00 0.02 0.02 68 1016.5
20260504175450 63 154 0.0 0.0 0.00 0.02 0.02 69 1016.3
20260504174947 62 209 6.0 7.0 0.00 0.02 0.02 70 1016.2
20260504174444 63 175 6.0 7.0 0.00 0.02 0.02 67 1016.5
20260504173942 64 136 5.0 6.0 0.00 0.02 0.02 65 1016.5
20260504173438 63 166 4.0 7.0 0.00 0.02 0.02 66 1016.2
20260504172936 62 184 2.0 2.0 0.00 0.02 0.02 67 1016.0
20260504172431 62 202 1.0 1.0 0.00 0.02 0.02 69 1015.9
20260504171928 61 137 3.0 3.0 0.00 0.02 0.02 71 1016.2
20260504171425 61 182 3.0 3.0 0.00 0.02 0.02 73 1016.1
20260504170922 61 93 3.0 7.0 0.00 0.02 0.02 75 1016.0
20260504170418 61 193 3.0 3.0 0.00 0.02 0.02 74 1015.7
20260504160337 61 106 2.0 3.0 0.00 0.02 0.02 77 1015.9
20260504150802 57 98 1.0 1.0 0.00 0.02 0.02 94 1015.7
20260504150259 56 101 0.0 0.0 0.00 0.02 0.02 96 1015.5
20260504141229 54 112 0.0 0.0 0.05 0.02 0.02 96 1015.3
20260504140725 53 130 0.0 0.0 0.00 0.01 0.01 96 1015.2
20260504140221 53 132 0.0 0.0 0.00 0.01 0.01 96 1015.6
20260504130649 52 154 0.0 0.0 0.00 0.01 0.01 96 1015.1
20260504130146 53 156 0.0 0.0 0.00 0.01 0.01 96 1014.9
20260504120110 54 187 1.0 1.0 0.00 0.01 0.01 94 1014.6
20260504110537 56 182 0.0 0.0 0.00 0.01 0.01 92 1014.8
20260504100454 56 183 1.0 2.0 0.00 0.01 0.01 91 1014.4
20260504081847 59 199 1.0 2.0 0.00 0.00 0.00 85 1014.9
20260504081343 59 180 1.0 1.0 0.00 0.00 0.00 85 1015.2
20260504080839 59 179 4.0 5.0 0.00 0.00 0.00 84 1015.5
20260504080337 59 182 1.0 1.0 0.00 0.00 0.00 84 1015.5
20260504070304 60 169 3.0 3.0 0.00 0.00 0.00 82 1015.5
20260504060224 60 139 0.0 0.0 0.00 0.00 0.00 78 1014.9
20260504050652 60 128 0.0 0.0 0.00 0.00 0.00 76 1015.2
20260504050149 60 165 2.0 2.0 0.00 0.00 0.00 77 1015.2
20260504045646 60 127 0.0 0.0 0.00 0.00 0.00 77 1015.1
20260504045146 60 170 0.0 0.0 0.00 0.00 0.00 77 1015.1
20260504044644 60 137 1.0 1.0 0.00 0.00 0.00 76 1014.9
20260504044141 60 154 0.0 1.0 0.00 0.00 0.00 76 1014.9
20260504043638 60 124 1.0 1.0 0.00 0.00 0.00 76 1014.7
20260504043135 60 133 1.0 1.0 0.00 0.00 0.00 76 1014.8
20260504042632 60 129 1.0 1.0 0.00 0.00 0.00 76 1014.8
20260504042129 60 120 1.0 1.0 0.00 0.00 0.00 76 1015.0
20260504041625 60 122 1.0 1.0 0.00 0.00 0.00 76 1014.7
20260504041121 60 146 2.0 2.0 0.00 0.00 0.00 76 1014.8
20260504040618 60 135 2.0 2.0 0.00 0.00 0.00 76 1014.7
20260504040115 60 165 1.0 1.0 0.00 0.00 0.00 76 1014.5
20260504035612 60 126 1.0 1.0 0.00 0.00 0.00 76 1014.6
20260504035108 60 131 1.0 2.0 0.00 0.00 0.00 75 1014.8
20260504034606 60 174 1.0 1.0 0.00 0.00 0.00 75 1014.9
20260504034103 60 126 1.0 1.0 0.00 0.00 0.00 75 1014.5
20260504033601 60 113 2.0 2.0 0.00 0.00 0.00 75 1014.5
20260504033058 60 159 2.0 2.0 0.00 0.00 0.00 75 1014.7
20260504032555 60 165 1.0 1.0 0.00 0.00 0.00 75 1014.6
20260504032052 60 111 1.0 1.0 0.00 0.00 0.00 75 1014.6
20260504031548 60 141 0.0 1.0 0.00 0.00 0.00 75 1014.4
20260504031044 60 145 1.0 1.0 0.00 0.00 0.00 75 1014.5
20260504030542 60 129 1.0 2.0 0.00 0.00 0.00 75 1014.4
20260504030038 60 120 3.0 3.0 0.00 0.00 0.00 74 1014.4
20260504025535 60 109 3.0 3.0 0.00 0.00 0.00 74 1014.3
20260504025032 60 160 0.0 0.0 0.00 0.00 0.00 74 1014.1
20260504024529 60 162 0.0 1.0 0.00 0.00 0.00 74 1014.1
20260504024026 60 100 1.0 2.0 0.00 0.00 0.00 73 1014.2
20260504023522 60 121 0.0 1.0 0.00 0.00 0.00 73 1014.1
20260504023018 60 125 1.0 2.0 0.00 0.00 0.00 73 1014.1
20260504022514 60 219 1.0 2.0 0.00 0.00 0.00 73 1014.1
20260504022011 60 120 3.0 5.0 0.00 0.00 0.00 72 1014.3
20260504021509 61 182 4.0 5.0 0.00 0.00 0.00 72 1014.3
20260504021006 61 164 1.0 1.0 0.00 0.00 0.00 71 1014.1
20260504020502 61 104 1.0 1.0 0.00 0.00 0.00 71 1014.0
20260504015959 61 182 3.0 5.0 0.00 0.00 0.00 71 1014.1
20260504015455 61 131 3.0 3.0 0.00 0.00 0.00 71 1014.0
20260504014951 61 148 3.0 3.0 0.00 0.00 0.00 71 1014.0
20260504014447 61 183 2.0 2.0 0.00 0.00 0.00 72 1013.7
20260504013944 61 167 2.0 2.0 0.00 0.00 0.00 72 1013.7
20260504013443 61 152 4.0 5.0 0.00 0.00 0.00 71 1014.2
20260504012938 61 138 3.0 3.0 0.00 0.00 0.00 70 1013.7
20260504012437 61 62 4.0 5.0 0.00 0.00 0.00 70 1013.5
20260504011934 61 204 1.0 2.0 0.00 0.00 0.00 70 1013.7
20260504011430 61 164 3.0 7.0 0.00 0.00 0.00 69 1013.7